Kaltag, AK

9:57 AM AKDT on October 23, 2017 (GMT -0800)
Kaltag

Weather History for PAKV - January, 2013

Change the Weather History Date:

Sunday, January 6, 2013

  Actual Average (PAGA) Record (PAGA)
Temperature  
Mean Temperature 23 °F -  
Max Temperature 25 °F 3 °F 36 °F (1993)
Min Temperature 21 °F -13 °F -54 °F (1997)
Degree Days  
Heating Degree Days 42    
Moisture  
Dew Point 11 °F    
Average Humidity 61    
Maximum Humidity 68    
Minimum Humidity 53    
Precipitation  
Precipitation 0.00 in - - ()
Sea Level Pressure  
Sea Level Pressure 29.37 in    
Wind  
Wind Speed 9 mph (NE)    
Max Wind Speed 12 mph    
Max Gust Speed -    
Visibility 9 miles    
Events Snow    
Averages and records for this station are not official NWS values.
T = Trace of Precipitation, MM = Missing Value Source: NWS Daily Summary

Daily Weather History Graph

Daily Weather History Graph

Search for Another Location

Airport or City:

Trip Planner

Search our weather history database for the weather conditions in past years. The results will help you decide how hot, cold, wet, or windy it might be!

Date:

Astronomy

Jan. 06, 2013 Rise Set
Actual Time 11:21 AM AKST 4:00 PM AKST
Civil Twilight 10:07 AM AKST 5:15 PM AKST
Nautical Twilight 9:00 AM AKST 6:22 PM AKST
Astronomical Twilight 8:00 AM AKST 7:21 PM AKST
Moon 4:50 AM AKST (1/6) 12:27 PM AKST (1/6)
Length of Visible Light 7h 07m
Length of Day
4h 39m
Waning Crescent, 31% of the Moon is Illuminated
Jan 6
Waning Crescent
Jan 11
New
Jan 18
First Quarter
Jan 26
Full
Feb 3
Last Quarter

Hourly Weather History & Observations

Time (AKST) Temp. Windchill Dew Point Humidity Pressure Visibility Wind Dir Wind Speed Gust Speed Precip Events Conditions
12:53 AM 24.1 °F 14.4 °F 10.0 °F 55% 29.42 in 10.0 mi ENE 9.2 mph - N/A   Overcast
1:53 AM 24.1 °F 13.1 °F 9.0 °F 53% 29.42 in 10.0 mi NE 11.5 mph - N/A   Overcast
2:44 AM 24.8 °F 14.6 °F 10.4 °F 54% 29.39 in 6.0 mi NE 10.4 mph - 0.00 in Snow Light Snow
3:07 AM 24.8 °F 14.0 °F 10.4 °F 54% 29.39 in 5.0 mi NE 11.5 mph - 0.00 in Snow Light Snow
3:53 AM 23.0 °F 13.1 °F 10.9 °F 60% 29.40 in 10.0 mi NE 9.2 mph - 0.00 in   Overcast
4:53 AM 21.9 °F 13.4 °F 10.9 °F 63% 29.40 in 8.0 mi NE 6.9 mph - 0.00 in   Overcast
5:53 AM 23.0 °F 13.1 °F 10.0 °F 58% 29.39 in 8.0 mi NE 9.2 mph - N/A   Overcast
6:53 AM 21.0 °F 11.4 °F 10.9 °F 65% 29.39 in 3.0 mi ENE 8.1 mph - 0.00 in Snow Light Snow
7:30 AM 21.2 °F 11.7 °F 10.4 °F 63% 29.37 in 2.5 mi NE 8.1 mph - 0.00 in Snow Light Snow
7:46 AM 21.2 °F 11.7 °F 10.4 °F 63% 29.37 in 3.0 mi ENE 8.1 mph - 0.00 in Snow Light Snow
7:53 AM 21.0 °F 11.4 °F 12.0 °F 68% 29.39 in 4.0 mi NE 8.1 mph - 0.00 in Snow Light Snow
8:22 AM 21.2 °F 10.9 °F 12.2 °F 68% 29.37 in 10.0 mi NE 9.2 mph - 0.00 in   Overcast
8:53 AM 21.9 °F 11.7 °F 10.9 °F 63% 29.39 in 10.0 mi ENE 9.2 mph - 0.00 in   Overcast
9:53 AM 21.0 °F 13.4 °F 12.0 °F 68% 29.39 in 10.0 mi ENE 5.8 mph - N/A   Overcast
10:53 AM 21.9 °F 13.4 °F 12.0 °F 66% 29.39 in 10.0 mi ENE 6.9 mph - N/A   Overcast
11:53 AM 21.9 °F 13.4 °F 12.0 °F 66% 29.39 in 10.0 mi NE 6.9 mph - N/A   Overcast
12:53 PM 23.0 °F 14.7 °F 12.0 °F 63% 29.40 in 10.0 mi ENE 6.9 mph - N/A   Overcast
1:53 PM 23.0 °F 14.7 °F 12.0 °F 63% 29.40 in 10.0 mi ENE 6.9 mph - N/A   Overcast
2:53 PM 21.9 °F 13.4 °F 12.9 °F 68% 29.38 in 10.0 mi NE 6.9 mph - N/A   Overcast
3:53 PM 24.1 °F 13.1 °F 12.9 °F 62% 29.37 in 10.0 mi NE 11.5 mph - N/A   Overcast
4:44 PM 24.8 °F 14.0 °F 10.4 °F 54% 29.35 in 10.0 mi NNE 11.5 mph - N/A   Overcast
4:53 PM 24.1 °F 13.1 °F 10.0 °F 55% 29.36 in 10.0 mi NE 11.5 mph - N/A   Overcast
5:53 PM 24.1 °F 13.7 °F 10.0 °F 55% 29.34 in 10.0 mi NNE 10.4 mph - N/A   Overcast
6:53 PM 25.0 °F 17.1 °F 10.0 °F 53% 29.34 in 10.0 mi NNE 6.9 mph - N/A   Overcast
7:53 PM 23.0 °F 17.0 °F 10.9 °F 60% 29.33 in 10.0 mi ENE 4.6 mph - N/A   Overcast
8:53 PM 23.0 °F 18.4 °F 12.0 °F 63% 29.32 in 10.0 mi NE 3.5 mph - N/A   Overcast
9:53 PM 23.0 °F 17.0 °F 12.0 °F 63% 29.31 in 10.0 mi NE 4.6 mph - N/A   Overcast
10:53 PM 23.0 °F 14.7 °F 10.9 °F 60% 29.30 in 10.0 mi ENE 6.9 mph - N/A   Overcast
11:53 PM 21.9 °F 13.4 °F 10.0 °F 60% 29.31 in 10.0 mi ENE 6.9 mph - N/A   Mostly Cloudy